This is the latest recevied weather packets stored in our database for station/object NC4M. If no packets are shown the sender has not sent any weather packets the latest 10 day(s).
| Time | Temp. | Humidity | Pressure | Rain* | Wind** | Luminosity | Snow |
|---|---|---|---|---|---|---|---|
| 1787836671 | 21.11° C | 89% | 1018.7 hPa | 0 mm | - | 37 W/m² | - |
| 1787836371 | 21.11° C | 90% | 1018.7 hPa | 0 mm | - | 32 W/m² | - |
| 1787836066 | 20.56° C | 90% | 1018.6 hPa | 0 mm | - | 31 W/m² | - |
| 1787835762 | 20° C | 92% | 1018.6 hPa | 0 mm | - | 30 W/m² | - |
| 1787835456 | 20° C | 94% | 1018.4 hPa | 0 mm | - | 29 W/m² | - |
| 1787835151 | 19.44° C | 96% | 1018.5 hPa | 0 mm | - | 27 W/m² | - |
| 1787834851 | 19.44° C | 96% | 1018.4 hPa | 0 mm | - | 26 W/m² | - |
| 1787834546 | 19.44° C | 96% | 1018.3 hPa | 0 mm | - | 25 W/m² | - |
| 1787834241 | 18.89° C | 96% | 1018.2 hPa | 0 mm | - | 24 W/m² | - |
| 1787833937 | 18.89° C | 96% | 1018.2 hPa | 0 mm | - | 22 W/m² | - |
| 1787833632 | 18.89° C | 96% | 1018.3 hPa | 0 mm | - | 21 W/m² | - |
| 1787833327 | 18.89° C | 96% | 1018.2 hPa | 0 mm | - | 19 W/m² | - |
| 1787833022 | 18.33° C | 96% | 1018.3 hPa | 0 mm | - | 18 W/m² | - |
| 1787832718 | 18.33° C | 96% | 1018.1 hPa | 0 mm | - | 16 W/m² | - |
| 1787832417 | 18.33° C | 96% | 1017.9 hPa | 0 mm | - | 14 W/m² | - |
| 1787832116 | 18.33° C | 96% | 1018 hPa | 0 mm | - | 12 W/m² | - |
| 1787831815 | 18.33° C | 96% | 1017.9 hPa | 0 mm | - | 10 W/m² | - |
| 1787831510 | 17.78° C | 96% | 1017.8 hPa | 0 mm | - | 8 W/m² | - |
| 1787831208 | 18.33° C | 96% | 1017.7 hPa | 0 mm | - | 6 W/m² | - |
| 1787830905 | 18.33° C | 96% | 1017.9 hPa | 0 mm | - | 5 W/m² | - |
| 1787830604 | 18.33° C | 96% | 1017.7 hPa | 0 mm | - | 3 W/m² | - |
| 1787830304 | 18.33° C | 96% | 1017.9 hPa | 0 mm | - | 2 W/m² | - |
| 1787830004 | 18.33° C | 95% | 1017.5 hPa | 0 mm | - | 1 W/m² | - |
| 1787829698 | 18.33° C | 95% | 1017.6 hPa | 0 mm | - | 0 W/m² | - |
| 1787829393 | 18.33° C | 95% | 1017.7 hPa | 0 mm | - | 0 W/m² | - |
* Rain latest hour (hover to see other rain measurements)
** Current wind speed in m/s (hover to see current wind gust speed)